TimeAST,TemperatureF,Dew PointF,Humidity,Sea Level PressureIn,VisibilityMPH,Wind Direction,Wind SpeedMPH,Gust SpeedMPH,PrecipitationIn,Events,Conditions,WindDirDegrees,DateUTC
12:00 AM,78.8,69.8,74,30.09,6.2,ESE,17.3,-,N/A,,Partly Cloudy,120,2013-01-08 04:00:00
1:00 AM,78.8,69.8,74,30.09,6.2,ESE,17.3,-,N/A,,Partly Cloudy,120,2013-01-08 05:00:00
2:00 AM,77.0,69.8,78,30.06,6.2,ESE,17.3,-,N/A,,Partly Cloudy,110,2013-01-08 06:00:00
3:00 AM,77.0,71.6,83,30.06,6.2,East,6.9,-,N/A,,Partly Cloudy,100,2013-01-08 07:00:00
4:00 AM,77.0,71.6,83,30.04,6.2,ESE,8.1,-,N/A,,Partly Cloudy,110,2013-01-08 08:00:00
5:00 AM,77.0,69.8,78,30.04,6.2,ESE,6.9,-,N/A,,Partly Cloudy,110,2013-01-08 09:00:00
6:00 AM,75.2,69.8,83,30.04,6.2,East,5.8,-,N/A,,Partly Cloudy,100,2013-01-08 10:00:00
7:00 AM,77.0,69.8,78,30.06,6.2,ESE,9.2,-,N/A,,Partly Cloudy,120,2013-01-08 11:00:00
8:00 AM,78.8,69.8,74,30.09,6.2,ESE,12.7,-,N/A,,Partly Cloudy,120,2013-01-08 12:00:00
9:00 AM,78.8,69.8,74,30.12,6.2,ESE,17.3,28.8,N/A,,Partly Cloudy,120,2013-01-08 13:00:00
10:00 AM,80.6,71.6,74,30.12,6.2,ESE,15.0,-,N/A,,Partly Cloudy,110,2013-01-08 14:00:00
11:00 AM,82.4,73.4,74,30.12,6.2,ESE,13.8,-,N/A,,Partly Cloudy,110,2013-01-08 15:00:00
12:00 PM,82.4,73.4,74,30.12,6.2,ESE,13.8,-,N/A,,Partly Cloudy,110,2013-01-08 16:00:00
1:00 PM,82.4,71.6,70,30.09,6.2,ESE,17.3,-,N/A,,Scattered Clouds,110,2013-01-08 17:00:00
2:00 PM,83,73,64,30.09,10,ESE,13.4,,,,Partly Cloudy,110,2013-01-08 18:00:00
2:00 PM,82.4,73.4,74,30.09,6.2,ESE,13.8,-,N/A,,Scattered Clouds,110,2013-01-08 18:00:00
3:00 PM,80.6,71.6,74,30.06,6.2,ESE,13.8,-,N/A,,Mostly Cloudy,110,2013-01-08 19:00:00
4:00 PM,82.4,71.6,70,30.06,6.2,ESE,13.8,-,N/A,,Scattered Clouds,110,2013-01-08 20:00:00
5:00 PM,80.6,71.6,74,30.06,6.2,ESE,13.8,-,N/A,,Mostly Cloudy,110,2013-01-08 21:00:00
6:00 PM,78.8,71.6,78,30.06,6.2,ESE,11.5,-,N/A,,Mostly Cloudy,110,2013-01-08 22:00:00
7:00 PM,78.8,71.6,78,30.09,6.2,ESE,11.5,-,N/A,,Mostly Cloudy,110,2013-01-08 23:00:00
8:00 PM,79,71,71,30.11,10,East,15.7,,,,Partly Cloudy,100,2013-01-09 00:00:00
8:00 PM,78.8,71.6,78,30.09,6.2,East,16.1,28.8,N/A,,Scattered Clouds,100,2013-01-09 00:00:00
9:00 PM,78.8,71.6,78,30.12,6.2,East,13.8,25.3,N/A,,Scattered Clouds,100,2013-01-09 01:00:00
10:00 PM,77.0,73.4,89,30.12,6.2,ESE,13.8,25.3,N/A,,Mostly Cloudy,110,2013-01-09 02:00:00
11:00 PM,78.8,71.6,78,30.12,6.2,ESE,13.8,25.3,N/A,,Mostly Cloudy,110,2013-01-09 03:00:00